Terminal Aerodrome Forecast
Issued by NWS

Home | Current Version | Previous Version | Text Only | Print | Product List | Glossary On
Versions: 1 2 3 4 5 6 7 8 9 10 11 12 13 14 15 16 17 18 19 20 21 22 23 24 25 26 27 28 29 30 31 32 33 34 35 36 37 38 39 40 41 42 43 44 45 46 47 48 49 50
000
FTUS43 KMKX 290258 AAA
TAFUES
TAF AMD
KUES 290258Z 2903/2924 15008KT P6SM SCT015 BKN120
     FM290700 17006KT 5SM BR SCT015
     FM291100 18007KT 3SM BR BKN015
     FM291600 20009KT P6SM BKN030=

USA.gov is the U.S. government's official web portal to all federal, state and local government web resources and services.